CZ-3C DEB, 40175

Orbit data source: Space-Track

CZ-3C DEB, 40175 is space debris in HEO originally from a launch on Sun, 31 Oct 2010 UTC launched from the Xichang Space Center, China (XSC). Debris objects in space refer to the collection of defunct objects orbiting the Earth. Examples of debris include non-operational satellites, rocket bodies, and fragments generated from explosions, collisions, or faulty payload assembly.

Loading next visibility...
Identifier
40175, 2010-057AD
Orbit
HEO
Last TLE update
11 months ago
Origin
Manufacturer
CALT
Mission
Spacecraft
Bus & Motor
Unknown
Mass
Unknown
Launch date (UTC)
2010-10-31 (15 years ago)
Launch vehicle
Unknown
Launch site
Xichang Space Center, China (XSC)
Object type
Payload
Rocket body
Debris
Shape & HBR
Unknown
Radar Cross Section
Medium (>0.1 m² and <1 m²)

Expand to show TLE details & history

TLE from 11 months ago
0 CZ-3C DEB
1 40175U 10057AD  24214.99491461  .00001858  00000-0  83034-2 0  9998
2 40175  19.5903  84.6819 7076990 217.1463  62.1799  2.43332064 93715
Epoch: 2024-08-01T23:52Z
TLE epoch observation values (Epoch: 2024-08-01T23:52:40.622Z)
Latitude
0.00008°
Longitude
135.53148°
Altitude
20,373.486 km
Speed
3.568 km/s
True Right ascension
05h 39m 06s
True Declination
0° 00' 00"
Sunlit
Object was in daylight at epoch
Visualization orbit readout
Latitude
6.32823°
Longitude
18.98594°
Altitude
4,456.97 km
Speed
7.512 km/s
Apparent Right ascension
22h 26m 28s
Apparent Declination
-25° 35' 53"
Sunlit
Object is in full shadow
Visualization observer readout
Local Sidereal Time
21:11:39
Azimuth
161.8° S
Elevation
22.207°
Doppler factor
1
Orbital elements
Apogee altitude
33,502.607 km
Perigee altitude
448.114 km
Semi-major axis
23,353.497 km
Eccentricity
0.7077
Inclination
19.5903°
RAAN
84.6819°
Arg. of periapsis
217.1463°
True anomaly
Unknown
Mean anomaly
62.1799°
Eccentric anomaly
Unknown
Mean motion
0.60816 °/min
Orbital period
591.95 mins
BSTAR
0.0083034
Loading maneuver chart data...
Loading SW <> Apogee altitude chart data...
Loading historical data...
Loading historical data...
Loading historical data...
Loading historical data...
Loading historical data...
Loading historical data...
Loading historical data...

CZ-3C DEB Visibility forecast

Observer location: undefined°, undefined°

Span
Click to sort rows by Start time (UTC) header in descending order
Start Az.
Max El. time (UTC)
Max El. Az.
Max El.
End time (UTC)
End Az.
7 mins2025-07-01 09:33:21.637Z161.83° S2025-07-01 09:33:21.637Z161.83° S20.649°2025-07-01 09:40:21.637Z135.795° SSE
5 mins2025-07-01 20:01:21.637Z172.829° S2025-07-01 20:02:21.637Z169.139° S10.674°2025-07-01 20:06:21.637Z157.852° S
142 mins2025-07-02 01:55:21.637Z137.746° SSE2025-07-02 03:25:21.637Z139.253° SSE12.652°2025-07-02 04:17:21.637Z132.105° SE
|